Weather History for Birchwood, AK

Change the Weather History Date:

Wednesday, July 24, 2013

  Actual Average Record
Temperature  
Mean Temperature 66 °F -  
Max Temperature 80 °F 63 °F 80 °F (2013)
Min Temperature 53 °F 49 °F 44 °F (1998)
Cooling Degree Days 2    
Growing Degree Days 16 (Base 50)    
Moisture  
Dew Point 52 °F    
Average Humidity 63    
Maximum Humidity 88    
Minimum Humidity 41    
Precipitation  
Precipitation 0.00 in - - ()
Sea Level Pressure  
Sea Level Pressure 30.00 in    
Wind  
Wind Speed 2 mph (West)    
Max Wind Speed 7 mph    
Max Gust Speed -    
Visibility 10 miles    
Events      
Averages and records for this station are not official NWS values.
T = Trace of Precipitation, MM = Missing Value Source: NWS Daily Summary

Daily Weather History Graph

Daily Weather History Graph

Search for Another Location

Airport:

Trip Planner

Search our weather history database for the weather conditions in past years. The results will help you decide how hot, cold, wet, or windy it might be!

Date:

Astronomy

Jul. 24, 2013 Rise Set
Actual Time 5:09 AM AKDT 10:57 PM AKDT
Civil Twilight 3:52 AM AKDT 12:13 AM AKDT
Nautical Twilight Sun does not rise Sun does not rise
Astronomical Twilight Sun does not rise Sun does not rise
Moon 10:50 PM AKDT (7/24) 8:49 AM AKDT (7/24)
Length of Visible Light 20h 21m
Length of Day
17h 48m
Waning Gibbous, 94% of the Moon is Illuminated
Jul 24
Waning Gibbous
Jul 29
Last Quarter
Aug 6
New
Aug 14
First Quarter
Aug 20
Full

Hourly Weather History & Observations

Time (AKDT) Temp. Heat Index Dew Point Humidity Pressure Visibility Wind Dir Wind Speed Gust Speed Precip Events Conditions
12:16 AM 66.2 °F - 51.8 °F 60% 30.04 in 10.0 mi NE 4.6 mph - N/A   Unknown
12:36 AM 66.2 °F - 51.8 °F 60% 30.04 in 10.0 mi East 3.5 mph - N/A   Unknown
12:56 AM 62.6 °F - 53.6 °F 72% 30.05 in 10.0 mi Calm Calm - N/A   Unknown
1:16 AM 62.6 °F - 51.8 °F 68% 30.05 in 10.0 mi Calm Calm - N/A   Unknown
1:36 AM 60.8 °F - 51.8 °F 72% 30.05 in 10.0 mi Calm Calm - N/A   Unknown
1:56 AM 62.6 °F - 51.8 °F 68% 30.05 in 10.0 mi Calm Calm - N/A   Unknown
2:16 AM 60.8 °F - 51.8 °F 72% 30.05 in 10.0 mi Calm Calm - N/A   Unknown
2:36 AM 60.8 °F - 51.8 °F 72% 30.05 in 10.0 mi Calm Calm - N/A   Unknown
2:56 AM 59.0 °F - 51.8 °F 77% 30.04 in 10.0 mi NE 4.6 mph - N/A   Unknown
3:16 AM 59.0 °F - 51.8 °F 77% 30.04 in 10.0 mi NNE 3.5 mph - N/A   Unknown
3:36 AM 57.2 °F - 51.8 °F 82% 30.04 in 10.0 mi Calm Calm - N/A   Unknown
3:56 AM 55.4 °F - 50.0 °F 82% 30.05 in 10.0 mi SSW 4.6 mph - N/A   Unknown
4:16 AM 57.2 °F - 51.8 °F 82% 30.05 in 10.0 mi SSW 3.5 mph - N/A   Unknown
4:36 AM 57.2 °F - 51.8 °F 82% 30.05 in 10.0 mi Calm Calm - N/A   Unknown
4:56 AM 55.4 °F - 50.0 °F 82% 30.04 in 10.0 mi Calm Calm - N/A   Unknown
5:16 AM 53.6 °F - 48.2 °F 82% 30.05 in 10.0 mi Calm Calm - N/A   Unknown
5:56 AM 53.6 °F - 50.0 °F 88% 30.04 in 10.0 mi Calm Calm - N/A   Unknown
6:16 AM 55.4 °F - 50.0 °F 82% 30.04 in 10.0 mi Calm Calm - N/A   Unknown
6:36 AM 55.4 °F - 51.8 °F 88% 30.04 in 10.0 mi Calm Calm - N/A   Unknown
6:56 AM 55.4 °F - 50.0 °F 82% 30.04 in 10.0 mi Calm Calm - N/A   Unknown
7:16 AM 55.4 °F - 50.0 °F 82% 30.04 in 10.0 mi Calm Calm - N/A   Unknown
7:36 AM 55.4 °F - 50.0 °F 82% 30.04 in 10.0 mi Calm Calm - N/A   Unknown
7:56 AM 55.4 °F - 51.8 °F 88% 30.03 in 10.0 mi Calm Calm - N/A   Unknown
8:16 AM 59.0 °F - 48.2 °F 67% 30.03 in 10.0 mi NNE 5.8 mph - N/A   Unknown
8:36 AM 60.8 °F - 50.0 °F 68% 30.02 in 10.0 mi NNE 3.5 mph - N/A   Unknown
8:56 AM 59.0 °F - 48.2 °F 67% 30.02 in 10.0 mi NNE 3.5 mph - N/A   Unknown
9:16 AM 60.8 °F - 48.2 °F 63% 30.02 in 10.0 mi NNE 3.5 mph - N/A   Unknown
9:36 AM 62.6 °F - 48.2 °F 59% 30.02 in 10.0 mi NNE 3.5 mph - N/A   Unknown
9:56 AM 62.6 °F - 48.2 °F 59% 30.02 in 10.0 mi Calm Calm - N/A   Unknown
10:16 AM 64.4 °F - 48.2 °F 56% 30.01 in 10.0 mi Calm Calm - N/A   Unknown
10:36 AM 64.4 °F - 50.0 °F 59% 30.01 in 10.0 mi Calm Calm - N/A   Unknown
10:56 AM 66.2 °F - 50.0 °F 56% 30.01 in 10.0 mi Calm Calm - N/A   Unknown
11:16 AM 68.0 °F - 50.0 °F 52% 30.01 in 10.0 mi Calm Calm - N/A   Unknown
11:36 AM 68.0 °F - 50.0 °F 52% 30.01 in 10.0 mi WNW 3.5 mph - N/A   Unknown
11:56 AM 68.0 °F - 50.0 °F 52% 30.00 in 10.0 mi WNW 3.5 mph - N/A   Unknown
12:16 PM 69.8 °F - 50.0 °F 49% 30.00 in 10.0 mi West 3.5 mph - N/A   Unknown
12:36 PM 71.6 °F - 51.8 °F 50% 30.00 in 10.0 mi West 5.8 mph - N/A   Unknown
12:56 PM 69.8 °F - 53.6 °F 56% 29.99 in 10.0 mi West 3.5 mph - N/A   Unknown
1:16 PM 69.8 °F - 53.6 °F 56% 29.99 in 10.0 mi WNW 3.5 mph - N/A   Unknown
1:36 PM 71.6 °F - 53.6 °F 53% 29.99 in 10.0 mi West 4.6 mph - N/A   Unknown
1:56 PM 73.4 °F - 53.6 °F 50% 29.99 in 10.0 mi Calm Calm - N/A   Unknown
2:16 PM 73.4 °F - 51.8 °F 47% 29.98 in 10.0 mi West 3.5 mph - N/A   Unknown
2:36 PM 75.2 °F - 50.0 °F 41% 29.97 in 10.0 mi WNW 4.6 mph - N/A   Unknown
2:56 PM 75.2 °F - 51.8 °F 44% 29.97 in 10.0 mi West 4.6 mph - N/A   Unknown
3:16 PM 75.2 °F - 53.6 °F 47% 29.96 in 10.0 mi West 5.8 mph - N/A   Unknown
3:36 PM 75.2 °F - 57.2 °F 53% 29.96 in 10.0 mi West 4.6 mph - N/A   Unknown
3:56 PM 77.0 °F - 59.0 °F 54% 29.95 in 10.0 mi West 6.9 mph - N/A   Unknown
4:16 PM 78.8 °F - 55.4 °F 44% 29.95 in 10.0 mi West 4.6 mph - N/A   Unknown
4:36 PM 78.8 °F - 55.4 °F 44% 29.95 in 10.0 mi WSW 4.6 mph - N/A   Unknown
4:56 PM 78.8 °F - 55.4 °F 44% 29.94 in 10.0 mi West 5.8 mph - N/A   Unknown
5:16 PM 78.8 °F - 59.0 °F 51% 29.94 in 10.0 mi West 5.8 mph - N/A   Unknown
5:36 PM 80.6 °F 80.8 °F 57.2 °F 45% 29.93 in 10.0 mi West 5.8 mph - N/A   Unknown
5:56 PM 78.8 °F - 57.2 °F 47% 29.93 in 10.0 mi West 6.9 mph - N/A   Unknown
10:16 PM 73.4 °F - 53.6 °F 50% 29.93 in 10.0 mi SSW 5.8 mph - N/A   Unknown
10:36 PM 73.4 °F - 53.6 °F 50% 29.93 in 10.0 mi South 5.8 mph - N/A   Unknown
10:56 PM 71.6 °F - 53.6 °F 53% 29.94 in 10.0 mi SSW 4.6 mph - N/A   Unknown
11:16 PM 69.8 °F - 53.6 °F 56% 29.94 in 10.0 mi SSW 5.8 mph - N/A   Unknown
11:36 PM 69.8 °F - 53.6 °F 56% 29.94 in 9.0 mi SSW 4.6 mph - N/A   Unknown
11:56 PM 69.8 °F - 53.6 °F 56% 29.94 in 10.0 mi ENE 3.5 mph - N/A   Unknown